Meteo Giornale » Osservazioni meteo Italia » Bergamo-Orio Al Serio

ore: 09:50 - Osservazioni Meteo Bergamo-Orio Al Serio
Lat. 45° 40' N Lon. 9° 42' E Alt. 238 metri s.l.m.

nuvoloso Europe/Rome

15 °C

Nuvoloso

Temp. 24 Ore

11 °C

22 °C

Nord

3.7 Km/h

Dew point 6 °C

Umidità 54 %

Visibilità  10 Km

Il sole sorge alle ore 06:21

Il sole tramonta alle ore 20:18

Data e Ora Cielo e Fenomeni T °C DP °C Um. % Pres. hPa Vis. km Vento km/h
Oggi h: 09:50 nuvoloso Nuvoloso 15 6 54 1014 10 N 3.7
Oggi h: 09:20 nuvoloso Nuvoloso 15 5 51 1015 10 N 1.8
Oggi h: 08:20 molto_nuvoloso Molto Nuvoloso 13 7 66 1016 10 N 3.7
Oggi h: 07:50 molto_nuvoloso Molto Nuvoloso 13 7 66 1016 10 N 3.7
Oggi h: 07:20 molto_nuvoloso Molto Nuvoloso 13 6 62 1016 10 S/SO 9.3
Oggi h: 06:50 molto_nuvoloso Molto Nuvoloso 12 5 62 1015 10 N 3.7
Oggi h: 06:20 molto_nuvoloso Molto Nuvoloso 11 6 71 1015 10 N 3.7
Oggi h: 05:50 nuvoloso Nuvoloso 12 7 71 1015 10 N 1.8
Oggi h: 05:20 nuvoloso Nuvoloso 12 6 66 1016 10 N/NE 9.3
Oggi h: 04:50 nuvoloso Nuvoloso 11 7 76 1017 10 N/NE 9.3
Oggi h: 04:20 nuvoloso Nuvoloso 11 7 76 1017 10 N 9.3
Oggi h: 03:50 nuvoloso Nuvoloso 11 6 71 1018 10 N 9.3
Oggi h: 03:20 nuvoloso Nuvoloso 11 6 71 1018 10 N 7.4
Oggi h: 02:50 nuvoloso Nuvoloso 11 7 76 1018 10 N/NE 9.3
Oggi h: 02:20 nuvoloso Nuvoloso 12 6 66 1018 10 N/NE 7.4
Oggi h: 01:50 nuvoloso Nuvoloso 12 6 66 1018 10 N/NE 7.4
Oggi h: 01:20 nuvoloso Nuvoloso 12 7 71 1018 10 N 7.4
Oggi h: 00:50 nuvoloso Nuvoloso 12 6 66 1018 10 N 5.5
Oggi h: 00:20 nuvoloso Nuvoloso 13 5 58 1018 10 N 5.5
Ieri h: 23:50 nuvoloso Nuvoloso 14 4 50 1018 10 N 5.5
Ieri h: 23:20 nuvoloso Nuvoloso 14 6 58 1018 10 N 5.5
Ieri h: 22:20 nuvoloso Nuvoloso 16 5 47 1018 10 N 5.5
Ieri h: 21:50 nuvoloso Nuvoloso 16 5 47 1018 10 E/SE 11.1
Ieri h: 21:20 nuvoloso Nuvoloso 16 6 51 1018 10 N 5.5
Ieri h: 20:50 nuvoloso Nuvoloso 16 6 51 1018 10 N 3.7
Ieri h: 20:20 poco_nuvoloso Poco Nuvoloso 17 5 45 1017 10 N 3.7
Ieri h: 19:50 nuvoloso Nuvoloso 18 5 42 1017 10 SE 9.3
Ieri h: 19:20 nuvoloso Nuvoloso 19 5 39 1017 10 SE 7.4
Ieri h: 18:50 nuvoloso Nuvoloso 20 5 37 1017 10 SE 13
Ieri h: 18:20 nuvoloso Nuvoloso 20 5 37 1017 10 S/SE 14.8
Ieri h: 17:50 poco_nuvoloso Poco Nuvoloso 20 4 34 1018 10 SE 13
Ieri h: 17:20 poco_nuvoloso Poco Nuvoloso 22 5 32 1018 10 SE 13
Ieri h: 16:50 sereno Sereno 21 5 35 1018 10 S/SE 13
Ieri h: 16:20 poco_nuvoloso Poco Nuvoloso 22 4 30 1018 10 S/SE 13
Ieri h: 15:50 poco_nuvoloso Poco Nuvoloso 22 5 32 1018 10 S/SE 13
Ieri h: 15:20 sereno Sereno 22 5 32 1019 10 S 13
Ieri h: 14:50 sereno Sereno 22 5 32 1019 10 S/SO 13
Ieri h: 14:20 sereno Sereno 22 5 32 1020 10 S 9.3
Ieri h: 13:50 sereno Sereno 21 5 35 1020 10 N 7.4
Ieri h: 13:20 poco_nuvoloso Poco Nuvoloso 21 7 40 1020 10 N 9.3
Ieri h: 12:50 sereno Sereno 21 7 40 1021 10 S 11.1
Ieri h: 12:20 sereno Sereno 20 7 42 1021 10 S 11.1
Ieri h: 11:50 sereno Sereno 20 9 49 1021 10 S 9.3
Ieri h: 11:20 sereno Sereno 19 11 59 1021 8 S 7.4
Ieri h: 10:50 sereno Sereno 19 10 55 1021 7 S 9.3